This is the latest recevied weather packets stored in our database for station/object K9TLD. If no packets are shown the sender has not sent any weather packets the latest 10 day(s).
| Time | Temp. | Humidity | Pressure | Rain* | Wind** | Luminosity | Snow |
|---|---|---|---|---|---|---|---|
| 1778172852 | 10.56° C | 45% | 1014.8 hPa | 0 mm | - | 308 W/m² | - |
| 1778172548 | 10.56° C | 45% | 1014.7 hPa | 0 mm | - | 251 W/m² | - |
| 1778172246 | 11.11° C | 46% | 1014.7 hPa | 0 mm | - | 226 W/m² | - |
| 1778171943 | 11.11° C | 42% | 1015 hPa | 0 mm | - | 202 W/m² | - |
| 1778171640 | 11.11° C | 45% | 1014.8 hPa | 0 mm | - | 335 W/m² | - |
| 1778171337 | 10.56° C | 42% | 1015 hPa | 0 mm | - | 282 W/m² | - |
| 1778171032 | 10.56° C | 45% | 1015.1 hPa | 0 mm | - | 406 W/m² | - |
| 1778170730 | 10.56° C | 43% | 1015.1 hPa | 0 mm | - | 313 W/m² | - |
| 1778170426 | 10° C | 43% | 1015.3 hPa | 0 mm | - | 242 W/m² | - |
| 1778170123 | 11.11° C | 44% | 1015.3 hPa | 0 mm | - | 201 W/m² | - |
| 1778169818 | 11.11° C | 42% | 1015.3 hPa | 0 mm | - | 329 W/m² | - |
| 1778169515 | 11.67° C | 43% | 1015.4 hPa | 0 mm | - | 464 W/m² | - |
| 1778169210 | 11.67° C | 41% | 1015.3 hPa | 0 mm | - | 343 W/m² | - |
| 1778168907 | 11.11° C | 44% | 1015.4 hPa | 0 mm | - | 593 W/m² | - |
| 1778168605 | 11.11° C | 43% | 1015.3 hPa | 0 mm | - | 623 W/m² | - |
| 1778168301 | 10° C | 43% | 1015.4 hPa | 0 mm | - | 693 W/m² | - |
| 1778167998 | 10.56° C | 44% | 1015.5 hPa | 0 mm | - | 320 W/m² | - |
| 1778167695 | 10.56° C | 43% | 1015.5 hPa | 0 mm | - | 484 W/m² | - |
| 1778167391 | 9.44° C | 44% | 1015.6 hPa | 0 mm | - | 575 W/m² | - |
| 1778167087 | 10° C | 45% | 1015.7 hPa | 0 mm | - | 293 W/m² | - |
| 1778166783 | 10° C | 44% | 1015.7 hPa | 0 mm | - | 394 W/m² | - |
| 1778166480 | 10° C | 44% | 1015.9 hPa | 0 mm | - | 515 W/m² | - |
| 1778166177 | 10° C | 46% | 1015.6 hPa | 0 mm | - | 451 W/m² | - |
| 1778165873 | 10° C | 47% | 1015.9 hPa | 0 mm | - | 574 W/m² | - |
| 1778165569 | 9.44° C | 44% | 1016 hPa | 0 mm | - | 520 W/m² | - |
* Rain latest hour (hover to see other rain measurements)
** Current wind speed in m/s (hover to see current wind gust speed)